Regional Weather Roundup
Issued by NWS Lake Charles, LA

Home | Current Version | Previous Version | Text Only | Print | Product List | Glossary On
Versions: 1 2 3 4 5 6 7 8 9 10 11 12 13 14 15 16 17 18 19 20 21 22 23 24 25 26 27 28 29 30 31 32 33 34 35 36 37 38 39 40 41 42 43 44 45 46 47 48 49 50
000
ASUS44 KLCH 310310
RWRLCH
RWRLCH
REGIONAL WEATHER ROUNDUP
NATIONAL WEATHER SERVICE LAKE CHARLES LA
900 PM CST FRI JAN 30 2015

Note: "fair" indicates few or no clouds below 12,000 feet with no
significant weather and/or obstructions to visibility.


ACROSS SOUTHEAST TEXAS

CITY           SKY/WX    TMP DP  RH WIND       PRES   REMARKS
BEAUMONT       PTCLDY    52  37  56 NE7       30.33R
BEAUMONT CITY    N/A     51  35  54 NE5       30.35R
ORANGE         MOCLDY    50  37  59 NE6       30.36R
JASPER         CLEAR     47  36  66 NE3       30.38R
$$

ACROSS CENTRAL LOUISIANA

CITY           SKY/WX    TMP DP  RH WIND       PRES   REMARKS
LEESVILLE      PTCLDY    47  34  60 NE6       30.35S
FULLERTON        N/A     47  34  60 VRB3      30.34S
ALEXANDRIA INT PTCLDY    46  34  62 NE9       30.36F
ESLER FIELD    PTCLDY    43  34  70 VRB3      30.38S
DERIDDER         N/A     47  33  58 CALM      30.37R
OAKDALE        PTCLDY    40  37  87 CALM      30.36S
OPELOUSAS        N/A     46  34  64 NE6       30.35F
$$

ACROSS SOUTHWEST AND SOUTH CENTRAL LOUISIANA

CITY           SKY/WX    TMP DP  RH WIND       PRES   REMARKS
SULPHUR        MOCLDY    53  33  48 NE10      30.35S
LAKE CHARLES   MOCLDY    48  37  65 NE8       30.34R
CHENNAULT INT  CLEAR     48  36  61 NE5       30.35S
CAMERON PHI    CLEAR     52  39  62 NE10      30.36S
DEQUINCY         N/A     47  36  66 CALM      30.35R
JENNINGS         N/A     47  36  64 NE8       30.35S
LAFAYETTE      CLEAR     47  35  63 NE7       30.35R
NEW IBERIA     CLEAR     50  36  58 NE8       30.35S
ABBEVILLE        N/A     46  37  70 NE5       30.34S
PATTERSON      PTCLDY    48  36  61 NE6       30.35S
SALT POINT       N/A     49  38  65 CALM      30.33S
$$

SELECTED SITES ACROSS THE REGION

CITY           SKY/WX    TMP DP  RH WIND       PRES   REMARKS
HOUSTON BUSH   PTCLDY    50  37  61 NE7       30.32S
HOUSTON HOBBY  PTCLDY    53  44  71 CALM      30.32R
GALVESTON      PTCLDY    55  44  66 E10       30.33R
COLLEGE STAT   CLEAR     51  35  54 E6        30.32R
CONROE         CLEAR     44  39  82 CALM      30.33S
HUNTSVILLE     CLEAR     49  35  58 E5        30.33S
LUFKIN         CLEAR     47  34  60 E3        30.34F
SHREVEPORT     PTCLDY    44  31  60 E7        30.38S
MONROE         PTCLDY    42  31  64 NE5       30.42S
NATCHEZ MS     PTCLDY    45  32  61 N3        30.39S
BATON ROUGE    PTCLDY    43  36  76 CALM      30.36R
N.O. INTL ARPT MOCLDY    51  39  63 N5        30.35R
SLIDELL        PTCLDY    40  37  89 N5        30.35S
$$

MARINE REPORTS

STATION/POSITION TIME  TEMP    WIND        PRES    VSBY  WAVE
                       AIR SEA DIR/SP/G                  HT/PER
                 (UTC) (F)     (DEG/KT/KT) (MB)    (MI)  (FT/S)
BUOY 30 S HIGH I 0300   56 57   70/ 12/ 14 1026.2R         2/ 4
SEA RIM ST PARK  0300   50      60/  6/  6 1027.7R
PORT ARTHUR      0300      54   60/  4/  9 1027.2S
SABINE PASS N    0300   53 56   70/  7/ 10 1027.1R
TEXAS POINT      NOT AVBL
CALCASIEU PASS   0300   52 56   70/  8/ 11   N/A
LK CHARLES BEACH 0300   52 55              1027.5F
MARSH ISLAND     0200   57      60/ 10/ 11   N/A
FRESH WATER LOCK 0300   51 59   20/  6/  7 1026.9S
AMERADA PASS     0300   52 49   70/  3/  5 1027.1S
$$


USA.gov is the U.S. government's official web portal to all federal, state and local government web resources and services.